Wetbulb
57.00 56.89 57.38 56.93 57.67 57.17 56.78 56.53 56.55 57.00 57.03 57.06 56.96 56.81 56.66 57.18 56.75 52.74 48.79 54.67 56.36 61.80 61.15 55.70 55.09 52.56 48.78 46.48 48.87 48.02 38.16 34.91 39.62 41.31 43.53 47.21 46.48 50.36 51.98 50.36 52.75 53.77 53.45 66.13 72.84
57.43 57.13 57.27 57.31 57.49 57.42 56.88 56.48 56.22 56.21 56.50 56.42 57.35 56.16 55.99 56.83 51.49 49.48 56.55 62.27 63.07 64.70 55.76 53.07 51.11 50.32 43.38 44.84 45.16 43.28 39.63 39.95 44.42 46.02 44.77 46.71 45.56 47.86 48.27 48.41 49.60 52.11 54.69 67.74 71.45
58.02 58.16 57.77 57.50 57.45 57.22 56.72 56.74 56.75 56.46 56.64 56.13 55.99 55.50 55.25 55.33 47.86 50.56 65.51 65.06 62.67 65.82 57.87 54.74 52.07 48.32 43.59 45.00 43.62 42.35 41.05 44.40 46.32 47.44 47.86 47.36 46.67 48.64 46.86 44.92 48.05 49.25 51.98 53.37 62.54
57.63 57.48 57.06 56.83 56.81 56.95 56.72 56.37 56.53 56.14 56.11 56.27 55.89 56.04 55.37 51.69 38.53 54.87 66.41 67.22 65.47 61.23 56.45 53.76 49.49 43.93 41.65 40.87 45.70 41.00 45.41 46.16 46.82 48.76 47.22 45.35 47.67 47.74 47.45 46.84 50.08 50.42 51.45 51.81 51.18
57.55 56.88 56.05 55.42 55.46 55.93 55.08 54.98 55.29 55.77 56.04 55.89 55.51 55.46 52.45 46.11 46.39 55.35 65.53 64.89 62.21 57.28 53.91 51.22 46.30 43.96 42.14 43.55 43.89 43.08 43.70 45.73 47.41 47.41 46.41 47.32 45.87 45.77 46.14 49.73 51.06 50.76 50.92 50.18 50.20
56.66 56.22 55.63 55.23 55.07 54.95 55.36 55.55 55.35 55.57 55.06 55.80 55.62 55.46 49.97 41.03 53.22 55.06 55.18 59.21 58.12 54.22 53.19 51.58 47.14 48.57 44.98 44.25 42.69 44.29 44.77 44.60 44.78 44.58 45.72 45.01 45.52 46.27 47.15 49.86 49.51 50.17 49.51 49.51 49.49
55.85 55.67 54.96 54.62 54.68 55.32 55.36 55.13 55.01 55.58 55.89 55.72 56.06 53.38 48.37 44.94 54.65 55.01 53.53 55.04 58.41 56.40 52.13 53.04 51.20 48.24 48.40 43.36 46.32 45.27 42.16 43.64 45.06 44.87 44.14 46.01 43.96 44.48 47.57 48.92 47.98 48.33 49.25 50.31 50.64
55.14 55.19 55.34 54.34 55.18 55.20 55.28 55.09 54.80 54.86 55.21 55.64 56.83 52.69 45.04 54.27 55.19 54.17 55.62 55.28 57.54 58.22 55.17 54.47 52.93 48.94 47.40 45.70 45.89 42.36 41.57 38.74 43.39 45.83 46.00 45.03 40.38 46.12 48.22 47.92 47.65 48.88 49.59 50.32 50.06
55.44 54.89 54.81 54.81 54.86 55.24 54.66 54.27 54.42 54.40 55.57 56.15 52.89 50.54 43.96 56.87 52.90 55.17 55.26 54.02 55.70 56.72 55.41 55.52 51.77 46.87 45.15 41.32 38.79 40.75 36.70 37.73 41.60 46.07 45.46 44.44 41.65 45.87 48.29 48.17 47.99 48.80 49.90 50.31 49.58
55.21 54.95 54.66 54.76 54.83 54.50 53.94 53.80 53.77 54.02 54.31 54.88 53.43 46.99 48.87 49.42 54.90 56.84 57.13 56.08 53.50 53.68 52.81 51.12 47.32 43.68 42.07 39.37 34.27 36.50 36.81 39.09 39.82 44.17 45.34 43.33 42.88 45.31 48.36 49.11 48.65 49.55 50.58 50.45 50.56
54.44 54.50 54.53 54.49 54.41 53.53 51.56 47.36 46.13 47.19 50.63 46.75 47.22 47.63 50.78 55.73 58.22 55.92 57.01 54.55 53.58 49.43 45.11 48.47 41.57 39.22 41.49 42.44 43.12 42.61 41.13 39.81 42.55 45.51 44.19 43.29 43.50 45.31 47.89 47.87 47.08 48.55 50.09 50.44 50.65
53.18 53.57 54.04 54.00 53.51 52.87 49.74 44.50 47.93 49.60 43.76 50.55 49.92 50.54 52.56 54.51 49.47 53.64 56.45 49.66 48.09 42.33 46.76 45.70 40.55 44.84 46.71 45.71 43.94 43.01 40.60 39.85 42.79 45.95 44.41 43.42 43.09 45.98 47.69 47.93 49.04 49.59 49.82 51.02 50.99
52.33 52.54 52.75 52.64 52.27 49.59 47.92 51.11 55.51 54.68 44.07 48.02 51.00 49.77 49.63 52.45 48.67 50.48 53.56 50.34 45.81 43.46 44.28 41.75 45.08 48.60 46.49 44.50 43.03 42.11 40.66 40.42 40.07 44.10 45.38 43.82 40.89 43.95 48.24 49.38 49.92 50.57 50.12 50.75 50.53
52.04 52.04 52.19 52.15 47.66 46.53 43.18 49.32 53.73 53.70 39.24 42.94 47.22 51.19 51.68 51.87 48.35 54.90 56.34 50.17 46.17 42.94 45.82 44.04 48.10 47.31 45.51 43.39 44.37 39.96 44.97 43.97 42.76 41.29 35.82 43.12 32.53 41.35 45.35 47.71 49.88 49.59 48.51 50.76 52.81
51.52 51.77 51.73 51.41 46.12 43.32 45.68 50.95 52.73 50.65 28.90 45.68 50.61 56.00 53.48 48.39 51.76 51.89 56.43 51.21 44.15 44.64 46.37 42.77 44.72 44.71 43.25 43.86 46.37 42.17 46.30 44.59 43.20 39.92 38.22 40.22 34.73 38.51 44.54 45.18 47.36 48.48 51.32 51.18 53.07
51.37 51.45 51.07 47.92 47.39 47.91 50.31 50.45 49.35 38.40 28.97 43.66 50.60 49.03 48.79 49.31 50.18 51.81 52.35 52.94 50.64 45.63 47.03 46.16 49.90 47.62 45.78 47.82 47.47 47.14 44.64 43.23 41.95 38.21 31.92 37.49 37.06 36.45 40.46 45.19 47.64 49.97 52.16 52.46 53.40
51.03 50.87 49.27 48.74 43.45 49.59 49.49 46.45 34.45 30.42 43.67 43.90 45.32 47.37 46.06 46.44 47.40 47.92 46.95 45.70 41.35 38.81 39.14 44.16 45.08 47.38 49.13 45.34 45.86 44.81 37.73 30.42 31.69 31.80 30.66 39.88 37.98 38.40 44.76 49.48 49.84 51.55 51.17 51.65 53.80
50.01 49.38 48.21 49.94 49.26 49.09 46.54 40.91 29.74 38.03 39.73 46.48 46.82 45.29 41.45 46.18 45.71 45.74 44.02 41.54 45.80 43.61 40.97 37.34 35.34 44.72 48.53 44.92 40.67 39.75 37.61 32.30 26.54 27.77 31.62 41.84 36.47 40.08 47.61 51.94 52.68 53.42 51.47 53.61 53.39
48.81 47.40 48.45 51.74 52.06 51.54 43.32 34.15 33.35 38.56 42.83 41.97 43.03 41.40 37.69 44.02 44.66 44.35 42.74 41.82 45.15 45.72 39.20 37.20 38.47 48.60 48.50 48.85 46.77 40.86 38.02 41.82 37.63 39.31 34.27 36.66 40.41 46.97 48.63 50.36 50.77 50.90 52.73 52.15 53.07
45.25 45.53 48.76 55.34 53.33 50.12 42.06 35.63 37.35 42.91 43.26 43.75 38.48 41.54 37.40 37.00 41.83 42.09 42.19 45.58 44.63 47.24 46.43 43.40 36.10 45.62 47.64 48.95 48.19 44.59 45.43 37.74 37.81 30.06 27.40 34.79 38.63 40.06 46.16 48.30 49.00 51.21 50.60 51.66 53.52
44.85 42.26 52.97 56.38 55.65 46.46 37.37 38.52 42.17 46.28 47.24 43.08 41.80 41.01 41.34 40.63 41.98 40.22 41.68 46.21 47.56 47.38 46.42 44.02 40.68 41.26 46.33 43.58 40.88 41.71 41.05 40.81 39.84 37.09 29.92 30.80 36.38 47.28 46.61 48.97 49.08 48.90 49.47 49.29 50.45
42.42 36.57 53.43 54.51 42.73 43.02 38.89 42.33 44.50 44.78 48.10 45.21 45.04 44.50 39.75 38.90 40.75 39.76 38.94 43.83 48.09 46.67 43.63 44.42 41.07 36.79 39.37 45.75 48.24 46.98 41.71 41.38 32.93 33.65 37.15 37.07 35.31 49.62 48.67 50.45 51.03 49.61 51.38 52.63 54.97
39.13 40.44 50.93 50.25 37.31 39.36 42.80 42.53 43.46 44.66 44.08 44.02 42.17 43.22 43.93 41.07 38.04 41.27 41.38 46.63 47.60 45.72 45.55 45.11 39.27 35.04 37.12 41.29 45.80 42.53 43.19 43.35 42.05 41.37 37.31 35.19 35.90 49.56 50.24 48.51 50.21 49.50 51.75 53.10 54.37
40.63 38.37 44.30 45.37 46.12 41.60 38.63 38.97 39.74 45.56 44.04 45.79 44.34 44.37 41.54 40.17 42.97 40.06 41.91 45.24 47.63 47.01 49.42 48.71 42.50 39.30 34.40 39.30 42.79 41.99 44.21 44.54 39.94 34.45 37.84 38.16 41.02 46.00 47.06 46.36 47.06 47.61 48.77 50.80 50.95
43.49 41.05 42.07 35.44 37.35 38.12 39.70 40.18 38.63 38.30 44.69 45.50 42.06 41.22 36.13 34.36 39.91 39.77 43.41 43.08 45.49 46.62 46.74 46.73 39.99 42.05 42.42 41.94 42.80 42.81 41.99 42.73 41.61 41.79 37.35 40.69 41.37 45.75 46.38 46.03 47.06 48.16 49.37 51.09 50.29
41.28 39.19 41.52 38.18 39.73 36.75 39.40 38.46 38.29 40.59 41.51 41.00 39.07 39.85 38.73 36.93 40.33 40.58 41.43 41.09 41.99 44.56 44.75 45.97 38.66 40.89 39.51 43.61 42.54 40.12 42.43 42.75 43.31 44.02 43.34 41.51 42.36 48.34 49.71 49.51 47.87 48.56 49.76 49.97 51.15
43.98 44.63 41.15 38.17 38.18 36.35 37.86 38.40 39.14 41.62 42.67 43.95 41.04 39.38 40.44 43.14 45.14 46.73 45.97 46.27 44.27 42.05 41.60 42.87 40.67 38.09 35.71 41.70 41.16 35.89 39.12 41.72 43.67 45.75 44.85 39.47 42.19 48.13 47.12 47.51 46.33 47.69 49.01 49.02 49.19
MSLP
1019.97 1019.71 1019.43 1019.19 1019.06 1018.83 1018.56 1018.26 1017.81 1017.55 1017.35 1017.00 1016.57 1016.04 1015.58 1015.05 1014.47 1013.75 1012.30 1010.58 1010.33 1009.65 1009.84 1010.00 1009.76 1009.62 1009.98 1009.84 1009.19 1008.77 1009.20 1008.72 1007.63 1006.54 1005.05 1003.08 1002.86 1001.45 1000.62 999.90 999.51 999.98 1000.31 1001.09 1001.44
1019.87 1019.60 1019.37 1019.09 1018.79 1018.50 1018.26 1017.97 1017.64 1017.37 1017.01 1016.61 1016.10 1015.80 1015.32 1014.78 1014.33 1012.39 1008.75 1008.06 1008.40 1008.82 1009.53 1009.71 1009.61 1009.34 1009.80 1009.21 1009.14 1008.48 1008.09 1007.41 1006.45 1005.61 1004.88 1003.74 1003.41 1002.45 1001.78 1001.20 1000.48 1000.39 1000.62 1001.22 1001.54
1019.83 1019.58 1019.26 1018.92 1018.55 1018.21 1017.90 1017.62 1017.38 1017.10 1016.77 1016.43 1016.24 1015.79 1015.36 1014.96 1013.34 1008.82 1006.53 1006.44 1007.36 1008.53 1009.07 1009.10 1009.00 1009.32 1009.22 1008.95 1008.34 1007.41 1006.75 1006.52 1005.60 1004.90 1004.29 1003.77 1003.12 1002.59 1002.58 1002.22 1001.76 1001.66 1001.32 1001.31 1002.02
1019.72 1019.44 1019.12 1018.82 1018.49 1018.11 1017.74 1017.47 1017.10 1016.75 1016.52 1016.37 1016.12 1015.84 1015.66 1015.35 1012.32 1006.94 1006.57 1006.34 1006.78 1008.15 1008.63 1008.87 1008.86 1008.91 1008.64 1008.20 1007.55 1007.07 1006.31 1005.97 1005.17 1004.27 1004.12 1003.96 1003.25 1002.75 1002.61 1002.50 1002.20 1001.91 1001.78 1001.69 1002.10
1019.52 1019.21 1018.93 1018.61 1018.24 1017.81 1017.46 1017.14 1016.77 1016.56 1016.31 1016.12 1016.04 1015.97 1015.56 1014.48 1009.49 1006.99 1006.84 1007.29 1007.66 1007.90 1007.98 1008.18 1008.38 1008.56 1007.79 1007.23 1007.18 1006.14 1005.85 1005.08 1004.52 1004.04 1003.56 1003.28 1003.09 1003.00 1002.71 1002.56 1002.21 1002.11 1002.18 1002.23 1002.41
1019.53 1019.19 1018.75 1018.37 1017.93 1017.49 1017.09 1016.71 1016.38 1016.11 1015.77 1015.62 1015.63 1015.75 1015.43 1013.15 1007.63 1006.39 1006.40 1007.05 1007.05 1007.61 1007.39 1007.63 1007.35 1006.98 1006.75 1006.43 1006.21 1005.34 1005.21 1004.47 1003.85 1003.48 1003.25 1003.25 1002.95 1002.78 1002.40 1002.52 1002.66 1002.53 1002.62 1002.62 1002.46
1019.27 1018.86 1018.42 1017.99 1017.51 1016.95 1016.48 1015.99 1015.60 1015.38 1015.25 1015.05 1014.91 1014.92 1013.91 1008.81 1006.60 1006.11 1006.57 1006.71 1006.47 1006.29 1006.48 1006.27 1006.44 1006.35 1006.09 1005.71 1005.22 1004.99 1004.91 1004.08 1003.27 1003.00 1002.99 1003.18 1002.60 1002.23 1002.41 1002.51 1002.54 1002.51 1002.54 1002.56 1002.56
1018.89 1018.48 1018.05 1017.55 1016.98 1016.44 1015.91 1015.40 1014.90 1014.56 1014.34 1014.18 1014.20 1014.30 1011.80 1007.93 1007.31 1006.65 1005.78 1005.88 1005.54 1005.16 1005.41 1005.48 1005.70 1005.95 1005.72 1005.15 1004.70 1004.73 1004.33 1003.76 1002.96 1002.63 1002.62 1003.19 1001.42 1002.20 1002.05 1002.09 1002.15 1002.03 1002.13 1002.22 1002.23
1018.54 1018.08 1017.55 1017.07 1016.56 1016.05 1015.44 1014.73 1013.78 1013.35 1013.29 1013.34 1013.61 1013.27 1010.00 1006.75 1006.23 1004.76 1005.45 1005.24 1004.47 1004.61 1004.82 1004.69 1004.87 1005.19 1005.08 1005.17 1005.05 1004.17 1003.86 1003.36 1002.73 1002.03 1002.32 1002.44 1001.46 1001.70 1001.58 1001.57 1001.54 1001.32 1001.51 1001.71 1001.85
1018.34 1017.75 1017.19 1016.68 1016.08 1015.51 1014.79 1013.78 1011.64 1012.31 1012.38 1012.40 1012.38 1012.37 1008.73 1005.15 1003.60 1003.26 1003.59 1004.47 1004.21 1004.14 1004.55 1004.31 1004.51 1004.56 1004.49 1004.50 1003.52 1004.13 1003.69 1003.27 1002.41 1001.70 1001.58 1001.44 1001.00 1001.29 1001.01 1001.01 1000.89 1000.73 1000.60 1000.87 1001.13
1018.08 1017.39 1016.83 1016.29 1015.74 1015.26 1014.81 1013.78 1011.53 1011.72 1011.22 1009.86 1008.85 1007.51 1004.89 1003.70 1002.95 1002.45 1002.83 1003.76 1004.04 1004.19 1004.17 1004.19 1004.26 1003.11 1003.37 1003.67 1003.86 1003.80 1003.38 1002.62 1001.56 1000.53 1000.88 1000.33 1000.49 1000.75 1000.56 1000.38 1000.48 1000.38 1000.42 1000.20 1000.23
1018.03 1017.30 1016.53 1015.92 1015.10 1014.52 1014.91 1013.68 1010.58 1008.88 1007.58 1007.01 1005.85 1004.79 1003.66 1004.60 1003.80 1002.32 1002.23 1003.38 1003.72 1003.67 1004.05 1004.30 1002.43 1003.38 1003.71 1003.53 1003.54 1003.35 1002.84 1001.80 1000.95 1000.09 999.81 999.64 999.77 999.97 1000.18 1000.14 999.94 999.83 999.75 999.74 999.89
1017.99 1017.31 1016.67 1015.83 1014.80 1013.93 1013.04 1011.09 1009.10 1008.54 1007.50 1003.91 1002.19 1001.58 1001.22 1003.22 1002.51 1001.90 1001.75 1002.24 1002.77 1003.28 1003.14 1003.01 1002.31 1003.48 1003.28 1002.89 1002.60 1002.21 1001.93 1001.30 1000.88 999.92 999.30 999.61 1000.16 999.99 999.59 999.41 999.20 999.12 999.10 998.99 999.49
1017.66 1017.04 1016.49 1015.71 1014.06 1013.50 1011.74 1009.83 1008.66 1007.81 1006.33 1001.75 999.08 997.75 999.21 1000.72 1000.97 1000.95 1000.82 1001.61 1002.37 1002.49 1002.71 1002.51 1002.78 1002.29 1002.29 1001.74 1001.50 1001.09 1000.89 1000.87 1000.63 1000.51 1000.40 999.83 1000.61 1000.12 999.69 999.19 998.92 998.84 998.97 999.27 999.35
1017.08 1016.61 1016.05 1016.03 1015.19 1013.58 1010.91 1009.90 1009.13 1008.31 1006.22 999.68 997.76 997.07 997.26 999.37 998.76 999.16 1000.09 1000.63 1001.48 1001.81 1002.09 1001.46 1001.70 1001.38 1001.34 1000.82 1000.59 1000.05 1000.34 1000.45 1000.48 1000.67 1000.60 1000.24 1000.70 999.81 999.46 999.16 998.75 998.93 998.99 999.23 999.54
1016.33 1015.51 1015.50 1014.77 1013.95 1011.65 1011.00 1010.56 1009.91 1008.96 1004.60 999.98 999.32 998.84 998.58 998.88 998.83 999.82 1000.00 1000.30 1001.11 1001.71 1001.49 1001.26 1000.87 1000.37 1000.06 1000.00 999.96 1000.01 1000.35 1000.37 1000.61 1001.24 1001.48 1000.95 1000.93 1000.28 999.34 998.16 997.54 998.35 998.87 999.30 999.83
1015.11 1014.09 1013.66 1013.86 1012.07 1010.23 1011.08 1010.48 1010.19 1007.17 1002.43 1000.77 1001.33 1001.32 1000.78 1000.11 999.85 1000.35 1000.50 1000.67 1001.20 1001.85 1002.16 1001.37 1000.38 1000.00 999.93 999.57 999.21 999.51 1000.18 1000.80 1001.35 1001.70 1001.17 1001.34 1001.07 999.97 998.37 997.64 997.39 998.43 999.17 999.67 1000.50
1014.10 1012.41 1010.97 1010.25 1010.44 1011.11 1011.27 1010.51 1008.51 1005.07 1002.98 1001.18 1002.23 1003.22 1003.36 1001.89 1001.70 1001.27 1001.70 1002.52 1001.83 1002.11 1002.50 1001.66 1000.58 999.77 999.19 999.18 998.87 999.33 999.69 1000.38 1001.35 1001.94 1002.22 1001.43 1000.34 999.15 997.99 997.75 997.37 998.31 999.35 1000.11 1001.06
1013.45 1010.83 1009.66 1007.55 1008.93 1009.83 1010.51 1009.70 1006.78 1004.81 1003.07 1002.30 1002.37 1003.18 1004.19 1003.14 1002.48 1002.34 1002.27 1002.20 1001.85 1001.28 1002.21 1001.87 1000.83 999.47 999.12 998.85 998.86 998.64 999.27 1000.23 1001.42 1002.52 1003.34 1001.90 1000.07 999.28 998.01 998.53 998.91 999.22 1000.06 1000.92 1001.47
1013.76 1011.39 1008.07 1006.18 1007.32 1008.65 1009.55 1008.57 1006.90 1005.23 1004.34 1003.69 1003.78 1004.38 1004.43 1003.88 1003.37 1002.53 1002.45 1001.78 1001.72 1001.46 1001.42 1001.57 1001.58 999.91 998.93 998.75 998.59 998.51 999.38 1000.40 1001.72 1003.81 1004.42 1002.54 1001.91 1002.18 1000.99 1000.49 1000.17 1000.72 1001.23 1001.60 1001.90
1013.27 1011.08 1006.90 1006.58 1007.65 1008.40 1008.52 1007.31 1006.02 1004.96 1004.55 1005.63 1004.83 1004.52 1004.42 1003.16 1003.06 1002.86 1002.17 1001.43 1001.56 1001.51 1001.14 1001.84 1002.28 1000.88 999.91 998.74 999.17 999.29 999.90 1000.19 1001.49 1003.13 1003.68 1003.69 1004.24 1003.22 1003.93 1002.64 1002.39 1002.41 1002.69 1003.32 1003.54
1014.06 1011.55 1007.02 1007.03 1008.01 1008.05 1007.56 1006.72 1006.09 1004.97 1004.41 1004.57 1004.72 1004.24 1004.81 1004.63 1003.01 1003.15 1002.21 1001.50 1002.52 1002.95 1002.12 1002.15 1002.41 1002.52 1001.81 1000.02 999.91 999.64 999.32 1000.37 1001.83 1002.84 1003.47 1004.05 1005.09 1004.92 1004.56 1004.30 1003.84 1003.82 1003.31 1003.44 1003.77
1014.74 1011.68 1007.82 1007.05 1008.18 1008.69 1008.25 1006.85 1005.71 1004.55 1004.74 1004.87 1004.86 1005.14 1005.22 1004.79 1004.31 1002.89 1002.32 1001.88 1002.17 1002.95 1002.17 1001.58 1002.41 1003.26 1002.59 1001.49 1000.80 1000.30 999.92 1000.53 1001.45 1002.65 1003.75 1004.88 1005.38 1005.03 1005.29 1005.60 1005.33 1005.71 1005.49 1005.85 1005.87
1015.39 1012.24 1009.83 1008.68 1008.76 1009.18 1008.65 1006.99 1005.50 1004.38 1003.85 1004.93 1005.10 1005.26 1005.19 1004.64 1003.85 1002.94 1002.28 1002.45 1002.51 1002.76 1003.05 1002.68 1002.79 1002.78 1002.43 1002.35 1001.78 1000.96 1000.75 1001.40 1002.07 1003.22 1003.98 1004.33 1005.24 1005.23 1005.89 1006.28 1006.42 1006.31 1006.17 1006.73 1006.87
1015.26 1013.41 1012.62 1011.11 1010.03 1009.77 1008.83 1007.77 1006.88 1005.92 1004.88 1004.58 1005.02 1005.66 1006.54 1005.79 1003.62 1002.63 1002.03 1002.49 1002.65 1002.85 1002.95 1002.61 1002.72 1003.51 1002.75 1002.46 1002.23 1001.73 1001.68 1002.37 1002.80 1003.24 1003.88 1004.14 1004.56 1004.89 1005.22 1005.74 1006.29 1006.22 1006.42 1006.97 1007.96
1015.46 1014.96 1014.03 1012.80 1011.29 1010.57 1009.51 1008.91 1007.71 1006.11 1005.16 1005.02 1005.84 1006.11 1006.01 1005.55 1003.84 1002.08 1001.62 1001.00 1001.89 1003.13 1003.30 1002.46 1002.77 1002.93 1003.11 1002.97 1002.39 1001.63 1002.00 1002.73 1002.76 1003.51 1003.99 1004.43 1004.61 1004.62 1004.65 1004.66 1006.27 1006.17 1006.39 1005.84 1007.10
1016.38 1015.71 1014.68 1013.12 1011.84 1011.02 1010.32 1009.40 1008.15 1006.91 1005.77 1005.24 1005.41 1005.07 1003.97 1003.61 1003.00 1001.46 1000.61 1000.04 1000.27 1001.44 1001.66 1002.08 1002.39 1002.62 1002.93 1003.23 1002.85 1002.15 1001.34 1001.51 1001.87 1002.24 1003.02 1005.06 1004.57 1004.95 1004.86 1005.29 1006.07 1005.90 1006.19 1006.55 1007.65
Wind_Speed
15 15 14 14 12 12 13 14 15 14 13 14 17 19 19 19 21 15 15 14 14 16 8 10 10 8 6 5 7 4 3 5 6 8 11 12 11 7 10 5 5 4 4 9 10
13 14 14 14 13 14 14 15 16 16 15 16 16 17 18 19 18 18 21 23 25 12 4 8 11 8 4 6 6 8 10 11 8 9 11 14 7 8 7 11 3 4 6 8 8
13 13 14 14 14 13 14 15 15 17 17 17 16 17 19 15 8 10 6 19 29 17 16 9 10 11 10 9 8 6 16 10 12 20 16 14 6 6 7 7 5 4 4 6 2
13 14 15 15 16 15 14 15 15 16 16 16 15 16 17 8 8 3 4 7 17 14 12 13 8 10 7 12 14 13 16 16 16 16 12 10 6 3 4 7 8 8 6 7 7
13 14 16 18 17 16 18 18 18 16 15 14 13 13 9 5 21 7 9 4 8 12 17 15 13 9 14 14 13 20 15 15 16 15 12 8 7 7 6 8 9 8 9 9 9
13 15 16 18 18 18 17 18 17 16 18 15 14 11 6 18 12 15 18 7 12 14 16 14 10 15 9 17 15 7 18 18 12 12 10 8 7 5 7 6 9 8 9 10 11
13 15 18 19 20 19 19 20 18 18 18 18 15 10 10 31 9 22 21 8 14 16 15 17 20 14 13 10 14 15 18 13 20 9 8 5 14 15 7 8 10 11 12 12 11
14 13 15 21 19 21 20 20 22 22 21 18 15 9 13 11 13 20 19 15 17 14 18 16 19 19 18 8 13 12 11 14 9 8 8 7 23 15 10 13 14 16 13 12 13
17 15 15 17 20 22 23 23 28 25 20 15 6 7 13 11 9 17 17 15 13 12 12 18 16 16 12 11 6 10 12 9 10 8 6 14 20 14 13 14 9 17 14 12 11
21 21 18 18 20 22 23 26 30 15 9 7 7 4 8 9 8 13 10 15 14 11 14 17 9 11 11 8 17 7 7 9 12 16 21 20 21 12 11 8 9 8 9 11 13
21 22 20 19 21 22 16 10 0 3 7 13 15 11 18 15 20 8 13 11 13 15 15 14 8 18 16 14 7 11 15 14 16 21 17 19 19 12 11 9 10 9 9 10 11
22 22 21 22 24 24 11 5 10 10 15 24 30 28 28 15 19 22 14 12 17 18 15 15 24 13 11 12 16 18 20 20 16 15 11 7 6 8 12 9 9 9 8 8 7
21 22 23 24 26 15 8 11 14 21 15 24 30 26 26 26 25 26 16 16 11 17 18 21 7 16 19 19 21 22 21 15 14 17 4 7 4 7 5 7 8 7 7 2 2
22 22 21 24 13 10 10 12 14 16 6 13 8 7 12 18 17 25 20 16 10 20 18 18 16 20 23 23 21 20 21 19 20 15 5 7 5 5 6 11 7 8 7 6 9
23 23 21 11 13 6 8 14 16 5 7 11 4 10 10 17 2 21 21 16 18 19 17 17 17 24 21 24 21 17 16 17 19 8 3 10 4 5 7 11 14 9 8 9 9
26 25 21 11 8 15 13 15 9 3 10 5 6 9 9 19 19 3 15 14 11 17 18 15 11 18 19 20 24 19 16 16 9 3 5 7 5 6 6 8 10 8 10 10 11
30 29 20 11 8 9 5 4 3 7 10 3 6 5 2 4 2 3 8 17 13 14 14 11 15 10 16 17 10 16 8 4 3 8 8 9 6 9 11 7 9 15 10 10 10
34 36 11 9 13 14 3 3 9 10 15 6 7 5 12 6 6 6 7 5 21 14 6 11 7 19 12 13 9 10 7 5 6 4 4 7 15 13 19 3 14 16 12 13 11
32 7 7 8 15 7 2 7 5 7 16 18 26 5 3 17 4 2 8 12 14 15 10 2 7 6 17 17 14 7 10 7 2 6 5 5 7 5 16 12 15 15 15 12 11
10 6 8 5 17 8 6 13 14 23 27 25 18 7 8 6 9 9 10 6 12 16 15 2 7 15 16 18 20 8 6 11 3 1 6 6 3 7 13 12 8 14 11 10 10
4 7 4 13 8 3 5 8 18 23 8 9 11 10 14 9 4 6 5 5 11 14 13 2 4 9 7 17 12 10 15 7 6 8 6 1 2 5 9 6 8 10 9 10 13
5 5 4 5 0 4 5 10 19 25 19 5 9 12 3 14 5 6 6 7 5 7 3 18 6 3 5 15 14 14 6 7 6 3 2 6 3 3 9 11 9 8 13 15 11
7 6 6 2 2 5 12 17 19 11 6 6 5 2 2 5 7 6 7 6 7 2 2 11 5 1 8 8 7 6 2 1 5 4 6 5 4 6 8 8 12 9 11 12 15
4 6 6 5 3 7 14 17 21 20 10 3 10 4 8 9 9 5 8 5 9 2 10 7 5 5 5 2 3 4 2 5 1 4 4 7 5 5 9 9 8 9 10 14 17
3 4 8 8 13 21 18 17 20 14 11 3 1 7 3 7 10 6 8 4 4 4 6 4 6 9 8 0 4 4 4 3 5 2 3 6 9 6 6 7 7 8 7 9 7
3 4 5 13 11 16 10 11 19 22 17 5 4 7 10 9 16 3 4 6 5 10 10 5 2 5 3 4 9 2 5 17 8 3 2 6 2 7 8 9 4 5 7 19 16
5 7 5 7 10 12 4 14 22 20 12 1 2 6 16 2 12 5 9 2 9 10 4 4 6 6 6 10 10 3 10 9 6 7 10 4 11 12 7 10 4 12 17 17 15
Wind_Direction
343 340 337 334 332 330 328 326 323 320 314 312 313 318 321 321 314 301 243 223 207 230 253 290 290 247 210 254 264 247 212 231 237 248 267 300 351 341 311 76 56 73 57 134 126
335 334 333 329 327 326 326 323 323 320 316 315 317 320 321 323 306 273 239 225 221 222 197 221 256 241 200 215 250 186 210 226 244 256 272 284 317 334 17 340 72 65 13 107 124
329 330 328 328 327 323 322 321 320 321 318 318 317 322 323 320 285 236 325 220 224 203 214 236 242 253 206 234 225 248 234 248 228 239 252 268 313 333 2 337 336 4 349 341 110
328 335 334 330 325 321 318 314 311 312 311 314 317 319 318 308 281 52 9 96 182 192 210 224 248 248 225 220 235 253 239 239 257 270 273 273 284 278 278 261 290 322 325 333 335
328 332 335 327 325 320 317 313 308 303 301 298 304 308 330 258 246 271 221 138 165 192 208 213 222 229 237 220 238 241 247 241 239 248 258 268 265 252 249 275 300 311 320 306 299
344 339 330 327 323 319 313 306 301 298 299 294 296 292 247 255 270 246 255 166 194 196 209 211 220 220 254 231 218 250 236 250 245 239 255 268 256 245 263 256 265 262 261 267 281
334 326 324 322 318 311 306 304 299 294 291 292 287 276 246 243 284 306 302 271 209 195 221 215 226 237 231 264 229 242 258 250 237 235 251 285 279 252 226 242 243 238 228 235 246
323 316 314 318 310 309 305 300 297 291 289 286 278 255 252 266 256 268 263 256 227 215 208 221 219 238 248 252 255 248 248 248 253 212 221 180 260 259 235 236 237 234 224 213 225
315 304 302 307 311 310 308 304 293 286 281 269 244 210 261 281 229 239 237 255 244 197 227 231 224 227 250 244 265 242 242 254 254 241 226 209 250 244 243 248 245 233 232 220 216
319 312 306 307 308 308 311 304 284 280 244 214 250 238 246 239 212 220 196 219 242 211 224 234 238 224 234 206 220 234 230 243 248 233 233 238 236 233 241 240 246 231 230 205 207
321 316 308 310 310 308 320 332 321 127 215 201 196 219 280 268 318 181 183 200 242 240 205 228 216 222 217 227 234 258 244 234 231 239 234 231 229 198 222 242 262 244 238 215 205
321 322 319 311 309 304 299 244 242 271 288 222 239 232 241 258 277 281 153 180 218 225 190 221 227 220 234 229 232 244 250 257 278 268 205 179 205 200 210 219 218 231 245 223 232
321 321 320 318 311 303 231 243 267 283 274 274 247 247 235 212 238 255 185 194 209 225 198 218 226 216 237 227 224 231 243 254 253 281 231 141 231 211 252 245 240 239 198 210 306
318 317 317 324 305 329 283 285 327 327 289 282 228 231 212 206 222 225 242 177 219 222 223 219 228 223 220 236 227 229 228 247 259 269 227 143 240 245 245 250 232 224 191 119 63
315 312 311 313 288 264 271 332 304 330 287 278 97 139 158 181 34 191 221 186 208 233 204 225 203 232 219 225 238 242 243 234 246 265 289 281 101 253 231 240 228 215 155 114 91
313 306 307 301 227 243 273 291 302 254 249 262 35 349 354 192 220 138 212 199 204 232 259 237 238 235 236 233 217 243 241 245 223 215 282 238 148 273 245 257 169 166 135 116 103
311 305 296 250 236 238 314 265 242 229 295 23 12 321 324 256 141 101 209 213 204 206 246 273 250 249 262 279 229 230 215 226 190 206 229 197 256 226 257 267 175 133 124 99 96
314 309 258 208 215 258 253 234 233 256 239 359 100 65 301 248 191 156 139 222 250 136 260 205 214 212 233 228 238 218 171 166 186 192 223 243 224 232 249 87 109 119 119 96 85
319 291 273 223 202 189 234 248 257 242 266 295 317 329 164 271 275 166 175 206 256 200 210 181 271 286 225 240 236 218 233 210 117 95 4 241 291 271 233 127 119 117 106 107 100
313 289 274 267 162 182 208 241 276 297 297 311 318 204 222 261 231 168 183 232 239 260 224 137 274 252 235 210 245 214 179 221 118 63 181 265 358 31 12 20 131 113 114 109 107
287 311 287 134 169 91 237 254 272 273 311 321 308 288 317 229 182 172 145 242 213 297 202 129 132 296 317 214 202 186 212 191 162 174 196 204 127 318 340 0 47 70 62 69 25
307 300 282 356 282 233 253 278 317 313 333 309 291 264 208 279 180 198 202 152 76 323 262 217 165 250 277 314 322 302 185 160 122 226 153 149 223 331 27 14 59 44 65 46 31
304 265 272 111 276 309 310 310 311 286 340 313 275 240 295 243 258 185 200 205 139 307 249 175 179 170 320 356 322 276 200 317 131 111 180 102 261 113 39 28 34 38 43 54 67
297 307 332 313 288 316 311 311 325 307 292 255 286 350 348 298 229 220 201 163 160 207 305 325 146 174 209 168 263 203 62 33 107 119 152 159 183 170 110 89 79 79 59 44 32
242 306 19 318 331 316 318 319 332 348 330 58 34 23 154 290 272 237 175 113 104 268 310 340 149 142 177 151 300 75 87 16 321 23 129 165 163 158 139 115 119 112 133 135 117
324 325 335 297 302 307 8 345 330 328 310 336 337 309 312 253 278 204 47 165 161 200 215 243 111 111 94 190 232 216 217 170 229 136 83 330 207 180 176 122 229 187 185 87 80
350 317 288 287 309 322 356 313 333 335 306 50 293 358 329 252 323 245 210 291 131 152 140 125 163 189 152 155 199 278 214 191 183 163 102 253 279 191 163 161 160 89 82 87 86